Temperature
20 20 20 20 18 17 19 19 20 19 19 19 19 18 18 17 18 17 17 17 17 18 18 17 17 17 17 17 17 17 17 17 17 17 17 17 17 17 17 17 17 17 17 17 17 17 17 17 18
20 20 20 19 17 18 19 20 19 19 19 19 19 18 18 17 17 17 17 17 17 17 17 17 17 17 17 17 17 17 17 17 17 17 17 17 17 17 17 17 17 17 17 17 17 17 17 17 17
20 20 20 17 18 18 20 20 19 19 19 19 18 18 17 17 17 17 17 17 17 17 17 17 17 17 17 17 17 17 17 17 17 16 17 17 16 16 17 17 17 17 17 17 17 17 17 17 17
20 20 19 17 19 19 19 20 19 19 20 19 18 17 17 17 17 17 17 17 17 17 17 17 17 17 17 17 17 16 16 16 16 16 16 16 16 16 16 16 16 16 16 16 17 17 17 17 17
20 20 18 18 19 20 19 20 20 19 19 18 18 17 17 17 17 17 17 17 17 17 17 17 17 17 17 16 16 16 16 16 16 16 16 16 16 16 16 16 16 16 16 16 16 16 16 16 17
20 18 17 18 19 20 20 20 20 19 19 18 18 17 17 17 17 17 17 17 17 17 17 17 16 17 17 16 16 16 16 16 16 16 16 16 16 16 16 16 16 16 16 16 16 16 16 16 16
19 17 18 19 19 20 20 20 19 18 18 18 18 17 17 17 17 17 17 17 17 17 17 17 17 16 16 16 16 16 16 16 16 16 16 16 15 15 15 15 15 15 16 16 16 16 16 16 16
20 17 18 18 19 20 20 20 20 19 18 18 18 17 17 17 17 17 17 17 17 17 17 17 16 16 16 16 16 16 16 16 16 15 15 15 15 15 15 15 15 15 15 16 16 16 16 16 16
20 17 18 19 19 20 20 20 20 19 19 18 18 18 18 18 17 17 17 17 17 16 16 16 16 16 16 16 16 16 16 16 16 16 16 16 16 15 15 15 15 15 15 16 16 16 16 16 16
19 17 19 20 19 20 20 20 19 19 18 18 18 18 18 18 17 17 17 17 17 17 16 16 16 16 16 16 16 16 16 16 16 16 16 16 16 16 16 15 15 16 16 16 16 16 16 16 16
19 18 19 20 20 21 20 20 20 19 18 18 18 18 18 18 17 17 17 17 17 17 17 16 16 16 16 16 16 16 16 16 16 16 16 16 16 16 16 16 16 16 16 16 16 16 16 16 16
19 20 20 20 21 21 20 20 19 19 19 20 19 19 18 18 18 17 17 17 17 17 17 17 16 16 16 16 16 16 16 16 16 16 16 16 16 16 16 16 16 16 16 16 16 16 16 16 16
19 20 20 21 21 20 20 19 19 19 19 19 19 18 18 18 18 18 18 17 17 17 17 17 17 17 16 16 16 16 16 16 16 16 16 16 16 16 16 16 16 16 16 16 16 16 16 16 16
20 20 20 20 20 20 19 19 19 19 19 19 19 18 18 18 18 18 18 18 17 17 17 17 17 17 17 16 16 16 16 16 16 16 16 16 16 16 16 16 16 16 16 16 16 15 16 15 15
20 19 19 20 20 20 20 19 18 19 19 18 18 18 18 18 18 18 18 18 18 18 17 17 17 17 17 16 16 16 16 16 16 16 16 16 16 16 16 16 15 15 15 15 15 15 15 15 15
19 18 18 19 19 19 19 18 18 18 18 18 18 18 18 18 18 18 18 18 18 18 17 17 17 17 17 16 16 16 16 16 16 16 16 16 15 15 15 15 15 15 15 15 15 15 15 15 15
17 17 18 18 19 19 19 18 18 18 18 17 18 18 18 18 18 18 18 18 18 18 17 17 17 17 17 16 16 16 16 16 16 16 16 16 15 15 15 15 15 15 15 15 15 15 15 15 15
17 17 18 18 19 18 18 18 17 17 18 17 18 18 18 18 18 18 18 18 18 17 17 17 17 17 17 16 16 16 16 16 16 16 15 15 15 15 15 15 15 15 15 15 15 15 15 15 15
18 18 18 18 19 18 17 17 17 17 17 17 17 17 18 18 18 18 18 18 18 17 17 17 17 17 16 16 16 16 16 15 15 15 15 15 15 15 15 15 15 15 15 15 15 15 15 15 15
18 18 17 18 19 18 17 17 17 16 17 17 17 17 18 18 18 18 18 18 18 18 17 17 17 17 16 16 16 16 16 15 15 15 15 15 15 15 15 15 15 15 15 15 15 15 15 15 15
18 17 18 18 18 18 18 17 17 17 17 17 18 18 18 18 18 18 18 18 18 18 17 17 17 17 16 16 16 16 15 15 15 15 15 15 15 15 15 15 15 15 15 15 15 15 15 15 15
17 18 18 18 17 16 17 16 16 16 16 16 17 17 18 18 18 18 18 18 18 18 17 17 17 17 16 16 16 16 16 15 15 15 15 15 15 15 15 15 15 15 15 15 15 15 15 15 15
18 18 18 17 17 16 16 16 15 15 16 16 16 17 18 18 18 18 18 18 18 18 18 17 17 17 16 16 16 16 15 15 15 15 15 15 15 15 15 15 15 15 15 15 15 15 15 15 15
18 17 16 14 14 15 16 15 15 15 16 16 16 17 18 18 18 18 18 18 18 18 18 17 17 17 16 16 16 16 15 15 15 15 15 15 15 15 15 15 15 15 15 15 15 15 15 15 15
17 16 15 15 14 15 15 15 15 16 16 17 17 17 18 18 18 18 18 18 18 18 18 17 17 17 16 16 16 16 15 15 15 15 15 15 15 15 15 15 15 15 15 15 15 15 15 15 15
16 16 15 15 15 14 15 15 16 17 17 18 18 18 18 18 18 18 18 18 18 18 18 17 17 17 16 16 16 16 16 15 15 15 15 15 15 15 15 15 15 15 15 15 15 15 15 15 15
16 15 15 14 15 15 15 15 16 17 17 17 17 17 17 18 18 18 18 18 18 18 18 18 17 17 17 16 16 16 16 16 15 15 15 15 15 15 15 15 15 15 15 15 15 15 15 15 15
17 15 14 14 15 15 15 16 16 17 17 16 16 17 17 18 18 18 18 18 18 18 18 18 17 17 17 16 16 16 16 16 15 15 15 15 15 15 15 15 15 15 15 15 15 15 15 15 15
16 15 14 13 14 14 15 15 17 17 17 16 16 17 18 18 18 18 18 18 18 18 18 18 17 17 17 16 16 16 16 16 16 15 15 15 15 15 15 15 15 15 15 15 15 15 15 15 15
17 16 14 15 14 14 14 15 17 17 17 17 17 18 18 18 18 18 18 18 18 18 18 18 17 17 17 17 16 16 16 16 16 16 15 15 15 15 15 15 15 15 15 15 15 15 15 15 15
Wind_Speed
2 3 3 3 5 5 2 2 0 2 3 2 4 6 6 4 2 2 1 2 4 3 4 6 7 8 8 8 9 9 9 10 10 9 9 9 10 10 10 9 10 9 9 9 9 9 9 8 8
1 2 3 4 4 3 1 2 1 1 4 4 5 5 6 4 3 3 1 2 4 4 5 6 8 8 8 8 8 8 9 9 9 9 9 9 9 9 9 9 9 8 8 8 8 8 8 8 8
2 2 4 4 3 3 2 1 2 4 4 3 4 5 4 3 2 2 2 4 5 5 5 6 8 8 8 8 8 8 9 9 9 9 8 8 8 8 8 8 8 7 7 7 7 7 7 8 8
3 4 4 5 2 1 2 2 3 5 3 5 4 5 3 3 1 3 4 5 5 4 5 6 8 8 8 8 8 8 8 9 9 8 8 8 8 7 8 8 8 7 6 6 6 6 7 7 7
4 4 5 3 2 2 0 1 3 3 3 3 4 5 3 4 5 7 6 5 5 4 4 5 7 8 8 8 8 8 8 8 8 8 8 8 7 7 8 7 7 7 6 6 6 6 7 7 7
4 4 4 1 1 2 1 2 3 3 4 3 4 4 2 2 4 5 5 4 4 4 4 5 6 7 7 7 7 7 8 8 7 7 7 7 7 7 7 7 7 7 6 6 6 6 7 6 6
4 4 3 2 0 1 1 2 4 4 4 3 4 5 2 1 2 5 5 4 4 4 4 5 5 6 6 6 6 7 7 7 6 6 6 6 6 7 6 6 6 6 6 6 5 6 6 6 6
4 5 3 1 2 0 1 2 3 4 4 3 4 6 5 4 5 6 5 5 4 3 3 4 5 6 5 5 5 5 6 5 5 5 5 6 6 6 5 5 5 5 5 5 5 6 7 7 7
4 5 2 3 4 2 2 3 2 3 5 3 2 3 4 9 9 7 5 3 2 2 2 2 3 4 4 4 5 5 5 6 6 5 5 5 5 5 5 4 5 5 6 6 6 7 8 8 8
4 3 2 3 4 4 2 3 4 4 3 3 4 4 7 9 9 8 6 4 3 2 1 1 1 2 3 3 4 5 5 5 5 4 4 4 4 4 4 5 6 7 7 8 8 9 9 9 9
3 3 2 0 2 3 3 2 2 6 2 5 7 9 9 8 8 7 6 5 4 3 2 2 1 1 1 2 3 3 4 4 4 3 3 3 4 5 5 6 6 7 8 8 8 9 9 8 8
2 0 1 1 2 3 3 4 3 3 3 4 8 11 10 9 8 7 6 4 3 3 3 2 2 1 1 0 1 2 2 2 2 2 2 3 3 3 4 4 5 6 6 6 7 7 8 9 9
1 1 1 1 3 3 4 3 3 1 2 6 9 9 10 9 7 5 5 4 3 3 3 3 3 2 2 1 1 1 1 1 1 1 2 3 2 2 3 3 5 5 6 5 5 6 7 7 7
1 1 2 2 3 2 4 2 3 1 5 8 9 8 8 8 7 5 4 5 4 4 3 2 3 3 3 2 1 1 1 2 3 2 2 3 3 3 3 3 4 5 5 6 6 6 5 5 6
2 4 4 2 1 1 4 2 2 3 7 8 7 7 7 6 6 6 6 5 5 4 3 3 3 3 3 3 2 2 3 3 3 3 4 5 5 5 4 3 3 4 5 7 7 7 7 5 6
4 4 2 3 0 1 4 4 4 5 8 8 7 6 6 5 5 5 5 5 5 4 4 3 3 5 4 4 3 4 4 4 4 4 5 6 6 7 5 3 3 4 6 6 5 4 5 6 6
4 1 2 4 2 2 4 5 4 6 8 8 8 7 6 5 4 5 5 6 6 6 5 4 4 5 5 5 5 5 5 5 5 6 6 6 7 7 6 4 4 5 5 4 4 4 4 5 5
3 2 2 4 3 3 4 6 4 6 8 8 8 7 7 7 7 5 6 6 6 5 5 5 5 5 5 5 4 4 5 4 6 6 6 7 7 7 7 5 5 5 4 4 4 5 5 4 4
3 2 3 5 3 3 6 7 6 7 7 8 8 8 8 8 5 4 5 7 7 6 6 5 5 5 5 3 3 3 2 2 3 4 6 6 6 6 6 5 4 4 4 4 5 4 6 4 3
2 1 3 4 1 3 4 6 5 7 9 9 10 10 10 8 5 5 6 7 7 7 6 5 5 5 4 3 3 3 3 2 2 3 5 6 6 5 5 5 3 3 4 5 4 4 3 3 3
2 4 4 3 2 3 1 5 4 4 5 6 8 9 9 11 10 8 7 7 8 8 8 7 6 6 5 5 4 4 4 4 3 3 3 4 5 5 5 5 5 4 3 4 3 4 4 3 2
4 4 4 2 1 2 1 3 6 4 4 7 9 9 10 10 9 9 9 9 9 9 7 7 6 6 5 5 5 5 4 2 1 1 1 3 5 5 5 5 5 4 3 3 3 3 3 4 2
5 1 2 1 2 1 1 2 7 2 5 9 11 11 11 11 11 11 10 10 9 8 8 7 6 5 5 5 6 6 4 2 1 2 3 3 4 5 5 5 5 4 3 3 3 3 3 2 3
5 5 5 5 4 1 4 4 7 5 7 7 9 11 12 12 11 10 9 8 7 7 7 7 7 5 5 5 5 6 6 5 4 2 2 2 2 3 4 5 5 4 3 3 3 3 3 2 3
5 6 3 4 3 5 3 3 8 7 7 8 9 11 11 11 11 10 10 10 9 9 9 8 9 6 5 6 5 5 6 6 5 3 3 2 1 1 2 3 3 3 3 4 4 4 3 3 3
4 7 6 4 4 4 2 5 7 6 5 4 5 7 9 11 11 12 12 11 11 11 10 9 9 7 7 6 5 5 5 4 3 3 3 3 2 1 1 3 3 3 4 4 4 3 2 2 3
6 3 5 5 1 2 5 6 7 2 3 1 2 6 8 11 12 12 11 11 11 11 10 11 10 8 7 6 6 5 4 4 4 3 3 2 2 2 3 3 4 4 4 5 4 4 3 3 3
6 8 5 4 2 3 5 5 4 5 4 2 2 5 7 8 9 10 10 11 10 10 9 9 9 9 7 7 6 5 5 4 4 4 4 3 2 2 3 3 3 4 4 4 4 4 3 5 3
4 4 4 4 4 4 3 6 5 6 5 5 5 6 7 8 9 9 9 10 9 9 9 9 9 8 7 7 6 6 5 4 4 4 4 3 3 3 4 3 4 4 3 3 4 4 4 4 3
5 7 7 5 4 4 3 6 6 6 5 4 5 5 5 7 7 8 9 9 9 10 9 9 9 8 8 7 6 6 5 5 4 4 3 3 4 3 4 4 4 3 3 3 4 4 3 4 3
Wind_Direction
9 89 90 63 55 53 40 347 20 51 55 51 64 77 90 82 85 123 348 103 113 101 98 110 113 115 116 116 119 117 113 111 110 109 106 104 102 101 99 94 90 88 84 80 79 76 74 72 71
94 106 63 61 79 71 346 319 58 82 132 134 70 68 74 71 67 94 85 96 103 96 92 108 113 114 114 113 113 113 110 109 108 107 105 104 102 101 99 94 90 86 82 78 76 73 71 69 69
116 65 81 71 87 146 176 219 130 92 101 99 74 54 68 73 94 120 142 119 101 90 89 108 111 114 117 118 116 113 108 107 106 103 103 103 101 101 98 93 90 85 81 76 72 68 67 65 65
89 50 56 69 72 229 198 189 146 129 84 62 93 70 56 30 123 131 121 115 108 91 94 108 111 114 118 119 117 114 112 107 102 99 97 100 99 95 93 89 85 80 77 72 65 62 62 62 63
63 76 61 52 11 332 329 144 135 123 91 66 92 89 44 3 91 112 115 114 112 96 88 106 113 113 113 112 111 111 109 107 101 96 92 95 95 90 88 84 81 78 77 71 65 60 61 61 63
58 68 83 94 352 356 45 101 103 94 97 90 95 97 64 40 108 118 113 104 102 94 76 82 99 103 104 108 112 111 108 106 102 96 91 88 88 86 84 81 77 73 72 70 67 62 60 60 64
100 94 119 147 118 13 86 90 109 109 106 120 117 104 107 170 137 116 105 97 90 84 72 59 68 78 86 94 100 107 105 101 98 93 87 84 81 77 75 70 66 65 62 63 64 61 59 59 64
116 101 91 129 148 257 93 83 93 109 115 115 109 134 174 194 138 109 92 79 78 78 68 55 55 61 54 52 85 101 99 93 86 80 73 68 63 59 58 54 52 54 58 59 60 64 61 65 67
87 77 124 193 177 189 136 100 67 80 103 88 88 146 167 136 124 114 99 74 76 92 59 61 52 54 43 34 53 58 63 60 57 51 48 45 37 33 32 37 46 49 46 47 53 60 65 66 66
83 116 202 216 184 163 129 121 136 101 92 85 78 82 113 127 137 143 151 163 179 194 218 134 71 54 36 30 43 42 42 40 42 40 35 37 34 27 25 24 35 40 42 47 54 61 66 66 62
115 160 228 277 162 133 117 114 121 128 160 184 166 150 140 141 151 162 170 179 196 201 208 182 169 109 64 23 35 42 34 26 29 32 35 41 39 36 35 32 34 39 45 48 53 60 64 68 70
106 286 193 169 124 113 128 128 122 160 211 179 158 151 149 154 166 173 178 188 185 187 213 194 169 149 149 76 32 44 38 19 18 20 51 66 55 46 43 41 41 49 52 55 56 64 69 71 74
93 335 31 86 89 107 102 108 135 138 80 114 129 139 152 162 171 177 174 176 173 193 217 206 170 167 165 127 63 74 57 45 41 58 73 91 86 68 59 52 59 59 61 64 65 68 69 68 70
174 89 47 42 71 77 111 94 119 165 121 124 140 155 165 173 176 172 168 165 171 193 208 183 162 161 144 118 91 85 85 86 84 75 86 109 106 97 84 69 65 63 68 76 74 74 71 67 70
81 66 23 8 69 119 105 37 215 171 139 142 157 170 177 187 182 182 181 171 175 180 171 163 160 135 132 124 113 99 85 89 84 78 93 108 110 105 96 83 69 65 80 85 80 73 70 68 67
57 58 12 306 109 167 136 243 242 160 153 165 176 179 184 198 199 196 180 168 168 160 152 162 153 130 125 118 106 90 80 82 72 76 88 99 105 107 102 93 78 84 89 87 82 71 71 64 64
36 70 256 290 235 159 168 232 234 166 168 181 188 189 192 202 217 206 182 169 165 162 154 141 124 124 122 109 93 83 75 70 69 76 79 88 96 105 104 96 92 98 89 81 90 75 83 82 78
211 206 244 260 262 161 199 238 229 182 183 192 193 194 198 202 215 206 184 165 156 151 138 128 117 118 115 99 85 72 61 50 57 63 72 86 93 101 100 93 88 94 90 78 82 87 74 78 83
164 175 253 263 250 187 222 242 237 194 193 197 199 201 205 211 216 192 169 152 144 141 138 140 135 136 127 111 104 96 78 48 44 50 67 80 89 98 98 95 86 89 93 97 100 97 86 70 71
169 215 272 290 299 198 238 261 249 202 204 202 200 202 204 203 190 178 161 152 153 157 158 149 152 150 145 131 119 116 111 80 57 45 54 62 78 91 103 100 96 94 98 96 99 106 102 71 44
207 201 225 248 351 23 340 308 277 237 214 209 205 202 201 199 192 179 170 168 165 171 172 168 165 156 146 131 110 89 67 52 40 34 29 28 61 84 97 106 107 102 105 114 114 118 118 117 48
229 223 205 202 123 296 29 285 280 250 230 219 214 203 201 200 190 182 178 177 179 180 171 161 161 155 146 139 134 132 124 118 117 67 41 36 55 72 88 102 106 103 98 109 118 110 115 127 120
200 109 113 120 143 338 330 222 284 283 245 236 221 211 202 195 190 189 186 183 181 172 166 157 155 153 150 147 145 135 125 127 110 80 74 53 42 56 74 94 98 99 100 104 102 104 108 122 139
126 75 58 49 71 295 238 196 277 240 229 238 220 212 202 193 190 190 183 172 169 162 157 150 153 158 156 151 150 147 144 141 126 106 91 62 45 40 57 82 87 92 97 102 107 106 109 116 122
95 90 34 356 357 261 256 217 252 253 243 230 220 210 199 187 183 181 176 175 173 168 166 161 160 164 164 160 161 162 159 157 157 156 143 120 81 53 46 70 81 85 97 101 102 101 103 111 118
157 139 156 203 236 282 288 243 259 271 281 258 218 191 182 182 183 185 183 180 179 176 171 166 169 169 168 167 170 165 160 158 159 160 154 151 150 144 107 96 91 89 94 96 95 90 93 94 100
136 159 161 139 190 277 282 284 300 299 348 3 168 171 183 185 185 186 182 179 177 177 175 173 171 169 171 170 165 164 161 160 160 154 145 146 149 143 116 105 96 89 91 97 98 88 80 87 81
142 142 111 129 162 271 295 286 270 291 293 288 204 199 196 187 183 183 181 180 179 176 171 167 167 169 169 167 170 170 166 166 160 149 148 151 144 118 118 101 98 94 91 96 95 89 84 86 74
119 120 122 130 157 172 275 280 243 248 250 243 233 212 195 186 183 183 181 178 171 162 161 166 166 162 164 169 168 156 159 156 151 155 164 159 145 137 133 126 116 110 104 98 96 93 96 94 82
162 167 152 160 207 185 197 271 278 259 253 235 232 214 191 184 178 174 172 167 165 165 167 170 170 170 173 171 164 160 155 151 155 165 167 155 150 147 140 134 125 121 114 108 112 111 107 108 103
Height
1510 1510 1510 1512 1515 1523 1526 1521 1517 1517 1517 1518 1517 1518 1519 1523 1526 1531 1527 1525 1526 1527 1527 1528 1528 1529 1530 1530 1531 1531 1532 1532 1533 1533 1534 1534 1535 1536 1536 1537 1537 1538 1538 1538 1539 1539 1539 1539 1539
1510 1510 1512 1513 1521 1532 1528 1519 1518 1517 1518 1518 1519 1520 1521 1523 1524 1525 1525 1526 1527 1528 1528 1528 1529 1530 1530 1531 1532 1532 1533 1533 1533 1534 1535 1535 1536 1536 1537 1537 1538 1538 1539 1539 1539 1540 1540 1540 1540
1510 1511 1513 1515 1523 1530 1526 1518 1517 1518 1518 1519 1520 1521 1523 1525 1526 1526 1527 1527 1528 1528 1529 1529 1530 1530 1531 1532 1532 1533 1533 1534 1534 1535 1535 1536 1536 1536 1537 1538 1538 1539 1539 1539 1540 1540 1540 1541 1541
1511 1513 1514 1520 1524 1521 1519 1517 1517 1518 1519 1520 1521 1523 1525 1527 1527 1527 1528 1528 1529 1530 1530 1530 1531 1531 1532 1533 1533 1534 1534 1534 1535 1536 1536 1536 1536 1537 1537 1538 1538 1539 1539 1540 1540 1540 1541 1541 1541
1511 1512 1519 1525 1523 1519 1517 1516 1517 1518 1519 1521 1522 1524 1526 1528 1528 1529 1529 1530 1530 1531 1531 1532 1532 1533 1533 1534 1534 1535 1535 1536 1536 1537 1537 1537 1537 1538 1538 1538 1539 1539 1540 1540 1540 1541 1541 1542 1542
1512 1513 1526 1530 1524 1519 1517 1517 1518 1519 1520 1522 1523 1525 1528 1529 1529 1530 1531 1532 1532 1533 1533 1533 1533 1534 1534 1535 1535 1536 1536 1537 1537 1538 1538 1539 1539 1539 1539 1539 1540 1540 1540 1541 1541 1542 1542 1543 1543
1513 1518 1525 1525 1525 1521 1518 1518 1519 1520 1521 1523 1523 1526 1528 1530 1531 1532 1532 1533 1534 1535 1535 1535 1535 1536 1536 1537 1537 1538 1538 1538 1539 1539 1540 1540 1540 1540 1541 1541 1541 1541 1542 1542 1542 1543 1543 1544 1544
1513 1518 1524 1525 1524 1522 1518 1519 1520 1520 1522 1524 1525 1526 1528 1530 1531 1533 1534 1535 1536 1536 1537 1537 1537 1538 1538 1538 1539 1539 1540 1540 1540 1541 1542 1542 1542 1542 1543 1543 1543 1543 1543 1544 1544 1544 1544 1545 1545
1513 1522 1527 1524 1522 1520 1518 1519 1521 1522 1523 1524 1525 1526 1528 1530 1531 1533 1535 1536 1537 1538 1538 1539 1539 1540 1540 1540 1540 1541 1541 1542 1542 1543 1543 1544 1544 1544 1544 1545 1545 1545 1545 1545 1546 1546 1546 1546 1546
1514 1524 1521 1517 1517 1517 1518 1519 1521 1522 1523 1525 1525 1527 1528 1530 1532 1534 1535 1537 1538 1539 1540 1540 1541 1542 1542 1542 1542 1543 1543 1544 1544 1545 1545 1545 1546 1546 1546 1546 1547 1547 1547 1547 1547 1547 1547 1548 1548
1514 1519 1516 1516 1516 1516 1518 1520 1521 1522 1524 1524 1524 1526 1529 1531 1533 1534 1536 1537 1539 1540 1541 1542 1543 1543 1544 1544 1544 1545 1545 1546 1546 1547 1547 1547 1547 1548 1548 1548 1548 1548 1549 1549 1549 1549 1549 1549 1549
1515 1516 1515 1516 1516 1517 1518 1520 1521 1522 1523 1523 1525 1526 1528 1531 1533 1535 1537 1538 1540 1541 1542 1543 1544 1545 1545 1546 1546 1546 1547 1547 1548 1548 1548 1548 1549 1549 1549 1550 1550 1550 1550 1550 1550 1550 1551 1551 1551
1516 1516 1516 1516 1516 1517 1519 1520 1521 1522 1523 1524 1526 1528 1529 1532 1534 1536 1538 1539 1540 1542 1543 1544 1545 1546 1546 1547 1547 1548 1548 1549 1549 1549 1549 1550 1550 1550 1551 1551 1551 1551 1551 1551 1552 1552 1552 1553 1553
1516 1516 1517 1517 1517 1518 1519 1521 1522 1523 1524 1525 1526 1528 1530 1532 1534 1536 1538 1539 1541 1542 1543 1545 1546 1547 1547 1548 1548 1549 1550 1550 1550 1550 1551 1551 1551 1552 1552 1552 1553 1553 1553 1553 1553 1554 1554 1554 1555
1516 1518 1519 1518 1518 1519 1520 1524 1523 1523 1524 1526 1527 1529 1531 1533 1534 1536 1538 1539 1541 1543 1544 1545 1546 1547 1548 1549 1549 1550 1551 1551 1551 1551 1552 1552 1552 1553 1553 1554 1554 1554 1555 1555 1555 1555 1556 1556 1557
1518 1523 1527 1521 1519 1520 1524 1529 1522 1522 1524 1525 1527 1529 1531 1532 1534 1536 1538 1540 1542 1543 1545 1546 1547 1548 1549 1550 1551 1551 1552 1552 1552 1553 1553 1553 1554 1554 1554 1555 1555 1556 1556 1556 1556 1557 1557 1558 1558
1526 1532 1530 1525 1519 1520 1523 1526 1521 1522 1523 1525 1526 1528 1530 1532 1534 1536 1538 1540 1542 1544 1545 1546 1547 1548 1549 1550 1551 1552 1553 1553 1553 1554 1554 1554 1555 1555 1556 1556 1556 1557 1557 1557 1558 1558 1559 1559 1560
1532 1531 1530 1528 1520 1521 1523 1523 1520 1521 1523 1524 1525 1527 1529 1531 1533 1535 1537 1540 1542 1544 1545 1546 1548 1549 1550 1551 1552 1553 1554 1554 1554 1555 1555 1556 1556 1556 1557 1557 1557 1558 1558 1558 1559 1560 1560 1561 1561
1524 1528 1529 1525 1519 1521 1523 1522 1520 1520 1521 1523 1524 1526 1527 1529 1532 1534 1537 1539 1541 1543 1545 1547 1548 1549 1551 1552 1552 1553 1554 1555 1555 1556 1556 1556 1557 1557 1557 1558 1558 1558 1559 1559 1560 1560 1561 1562 1562
1523 1528 1528 1523 1518 1520 1522 1521 1517 1518 1518 1519 1521 1523 1525 1528 1531 1533 1535 1538 1540 1543 1545 1547 1548 1550 1551 1552 1553 1554 1555 1555 1556 1557 1557 1557 1558 1558 1558 1558 1559 1559 1559 1560 1561 1561 1562 1563 1563
1523 1526 1526 1525 1521 1520 1522 1524 1519 1516 1516 1518 1519 1520 1523 1525 1528 1531 1534 1536 1539 1542 1544 1546 1548 1550 1551 1552 1554 1554 1555 1556 1557 1557 1558 1558 1559 1559 1559 1559 1559 1560 1560 1561 1561 1562 1563 1563 1564
1525 1519 1520 1522 1528 1533 1528 1538 1522 1516 1515 1515 1516 1517 1519 1523 1526 1529 1532 1535 1538 1541 1544 1546 1548 1550 1551 1552 1554 1555 1555 1556 1557 1558 1558 1559 1559 1560 1560 1560 1560 1560 1561 1561 1562 1562 1563 1564 1564
1518 1516 1519 1522 1527 1534 1531 1536 1528 1518 1516 1512 1511 1513 1515 1519 1522 1526 1529 1533 1537 1540 1543 1546 1548 1550 1551 1553 1554 1555 1556 1557 1557 1558 1559 1559 1560 1560 1561 1561 1561 1561 1562 1562 1562 1563 1564 1564 1565
1515 1520 1524 1530 1534 1542 1533 1537 1531 1519 1512 1507 1506 1508 1511 1515 1519 1524 1528 1532 1536 1539 1542 1545 1547 1549 1551 1553 1554 1555 1556 1557 1558 1559 1559 1560 1560 1561 1561 1562 1562 1562 1562 1563 1563 1563 1564 1564 1565
1517 1530 1543 1544 1549 1545 1531 1532 1526 1508 1503 1502 1502 1504 1507 1511 1516 1521 1525 1529 1533 1537 1540 1543 1546 1548 1550 1552 1554 1555 1557 1558 1558 1559 1560 1560 1561 1562 1562 1562 1563 1563 1563 1563 1564 1564 1564 1564 1565
1519 1526 1544 1550 1551 1544 1532 1533 1516 1503 1500 1498 1498 1500 1504 1508 1513 1517 1522 1526 1531 1535 1538 1542 1545 1547 1550 1552 1554 1555 1557 1558 1559 1559 1560 1561 1561 1562 1563 1563 1563 1564 1564 1564 1564 1564 1565 1565 1565
1520 1525 1526 1538 1540 1544 1537 1525 1510 1500 1499 1498 1498 1500 1502 1505 1510 1514 1519 1524 1529 1533 1536 1540 1543 1546 1549 1551 1553 1555 1557 1558 1559 1560 1560 1561 1562 1563 1563 1564 1564 1564 1564 1565 1565 1565 1565 1565 1565
1512 1519 1531 1537 1545 1547 1537 1528 1520 1505 1501 1499 1499 1499 1501 1504 1508 1512 1517 1521 1526 1530 1535 1539 1542 1545 1548 1551 1553 1555 1556 1558 1559 1560 1561 1562 1563 1563 1564 1564 1565 1565 1565 1566 1566 1566 1566 1566 1566
1516 1520 1526 1534 1537 1544 1544 1532 1506 1503 1499 1499 1498 1498 1500 1503 1506 1510 1514 1519 1524 1528 1533 1537 1541 1544 1547 1550 1552 1554 1556 1558 1559 1560 1561 1562 1563 1564 1565 1565 1566 1566 1566 1567 1567 1567 1567 1567 1567
1507 1513 1522 1532 1535 1536 1539 1530 1500 1498 1496 1496 1496 1497 1499 1502 1504 1508 1512 1517 1521 1526 1530 1535 1539 1542 1545 1548 1551 1553 1555 1557 1559 1560 1561 1562 1563 1564 1565 1566 1566 1567 1567 1567 1568 1568 1568 1568 1568